Weather in Bayreuth

Germany     49°56′44″N   11°34′17″E
temp.,
°C
wind,
m/s
gust,
m/s
humid.,
%
clouds,
%
prec.,
mm/h
press.,
hPa
HPBL,
m
20 may, fri
fri2023:00+15ene2396100 19.6 102377
02:00+14sse119499 19.7 102226
05:00+13s119489 0.0 102211
08:00+16s1392100 0.3 1022167
11:00+22sse3471100 0.3 1020532
14:00+26sw584992 0.3 10181645
17:00+27sw494994 0.0 10151855
20:00+23sw39728 0.2 1013312
21 may, sat
sat2123:00+19w7148446 2.3 10151119
02:00+12w5129442 2.9 1019828
05:00+10w498633 0.1 1022910
08:00+11w5976100 0.1 1023683
11:00+16w695697 0.0 10221398
14:00+18w6104492 0.0 10211999
17:00+19w5844100 0.0 10202073
20:00+15nw266669 0.0 1020171
22 may, sun
sun2223:00+11nne117182 0.0 102011
02:00+8e11864 0.0 102010
05:00+7ese119133 0.0 102010
08:00+12ssw007057 0.0 1018250
11:00+18wnw23499 0.0 10171315
14:00+21nw2337100 0.0 10151721
17:00+21nw223894 0.0 10131576
20:00+16nne2370100 0.0 101353
23 may, mon
mon2323:00+11e228262 0.0 101325
02:00+9ese267953 0.0 1012113
05:00+9e2271100 0.0 101219
08:00+12ese3667100 0.0 1010207
11:00+19s4656100 0.0 1008876
14:00+22sse465492 0.0 10051131
17:00+16sw81394100 6.3 1004683
20:00+16ssw4891100 9.6 1004241
24 may, tue
tue2423:00+15sw4119742 3.4 1006520
02:00+14wsw3897100 3.7 1006703
05:00+14wsw3898100 0.4 1007637
08:00+13wsw3791100 0.7 1009462
11:00+17wsw4665100 0.0 10091208
14:00+13sw3790100 0.3 1011459
17:00+16sw467460 0.4 10111012
20:00+14s3787100 0.7 1012341